Regional Weather Roundup
Issued by NWS

Home | Current Version | Previous Version | Text Only | Print | Product List | Glossary Off
Versions: 1 2 3 4 5 6 7 8 9 10 11 12 13 14 15 16 17 18 19 20 21 22 23 24 25 26 27 28 29 30 31 32 33 34 35 36 37 38 39 40 41 42 43 44 45 46 47 48 49 50

000
ASUS43 KLOT 261212
RWRIL

ILLINOIS REGIONAL WEATHER ROUNDUP
NATIONAL WEATHER SERVICE CHICAGO/ROMEOVILLE IL
700 AM CDT TUE MAY 26 2015

NOTE: "FAIR" INDICATES FEW OR NO CLOUDS BELOW 12,000 FEET WITH NO
SIGNIFICANT WEATHER AND/OR OBSTRUCTIONS TO VISIBILITY.

* THESE STATIONS ARE NOT UNDER NWS QUALITY CONTROL. THEY ALSO MAY NOT
  REPORT WEATHER SUCH AS PRECIPITATION OR FOG.

ILZ001-002-007-009-015-016-024-261300-
NORTHWEST ILLINOIS

CITY           SKY/WX    TMP DP  RH WIND       PRES   REMARKS
MOLINE         CLOUDY    69  66  90 SE12G22   29.82R
6HR MIN TEMP:  67; 6HR MAX TEMP:  71; 6HR PCP:  0.07;

STERLING*      CLOUDY    70  64  83 SE8       29.87F
SAVANNA*       CLOUDY    69  66  89 SE10      29.84F
$$

ILZ003-004-008-010-011-017-018-261300-
NORTH CENTRAL ILLINOIS

CITY           SKY/WX    TMP DP  RH WIND       PRES   REMARKS
ROCKFORD       CLOUDY    69  65  86 S8        29.91S FOG
6HR MIN TEMP:  67; 6HR MAX TEMP:  70;

FREEPORT*      CLOUDY    67  65  94 S9        29.90R FOG
ROCHELLE*      CLOUDY    66  65  94 S14       29.92R FOG
DE KALB*       CLOUDY    64  64  97 S14       29.94R FOG
PERU*          CLOUDY    69  65  89 S13G20    29.91S
$$

ILZ005-006-012>014-019>023-261300-
NORTHEAST ILLINOIS

CITY           SKY/WX    TMP DP  RH WIND       PRES   REMARKS
CHICAGO-OHARE  CLOUDY    67  64  90 S13       29.94R
6HR MIN TEMP:  64; 6HR MAX TEMP:  71;

CHICAGO-MIDWAY CLOUDY    70  65  84 S12G18    29.95R
6HR MIN TEMP:  69; 6HR MAX TEMP:  73;

AURORA         CLOUDY    68  64  87 S13       29.94R FOG
6HR MIN TEMP:  63; 6HR MAX TEMP:  68;

LANSING*       CLOUDY    67  63  84 S13       29.97S
JOLIET*        CLOUDY    69  66  89 S6        29.95R
WAUKEGAN       CLOUDY    68  65  90 S9        29.93S
6HR MIN TEMP:  64; 6HR MAX TEMP:  68;

DUPAGE AIRPORT CLOUDY    68  64  87 S13       29.94R
6HR MIN TEMP:  65; 6HR MAX TEMP:  68;

KANKAKEE*      CLOUDY    69  66  89 SE13G18   29.96S
WHEELING       CLOUDY    69  64  84 S13       29.95R
6HR MIN TEMP:  67; 6HR MAX TEMP:  71;

MORRIS*        CLOUDY    68  65  89 S9        29.93R
ROMEOVILLE*    CLOUDY    67  64  89 S14       29.95S
NORTHERLY ISL    N/A     68  63  84 S6          N/A
$$

LMZ740>746-261300-
SOUTHERN LAKE MICHIGAN

STATION/POSITION SKY/WX   TEMP    WIND        PRES    VSBY  WAVE
                          AIR SEA DIR/SP/G                  HT/PER
                          (F)     (DEG/KT/KT) (MB)    (MI)  (FT/S)
SOUTHERN BUOY              48 38  170/ 14/ 14 1014.6F         1/ 3
HARRISON CRIB              67     180/ 19/ 22   N/A
BURNHAM HARBOR             68     170/  7/ 15   N/A
CALUMET HARBOR             68     180/ 11/ 14   N/A
BURNS HARBOR               67     180/ 11/ 14 1015.6R
MICHIGAN CITY              67     160/ 14/ 19   N/A
MICHIGAN CITY 6N           63 52  190/ 12/ 17   N/A           1/ 2
ST. JOSEPH                 61 54  200/  8/ 10   N/A           1/ 2
$$

ILZ025>027-034>036-040-047-049-050-058-095>099-261300-
WEST-CENTRAL ILLINOIS

CITY           SKY/WX    TMP DP  RH WIND       PRES   REMARKS
QUINCY         HVY RAIN  68  66  93 S17G25    29.80F VSB 1
GALESBURG*     RAIN      68  65  91 SE7       29.83F
MACOMB*        LGT RAIN  68  67  94 SE12      29.83F
JACKSONVILLE*  CLOUDY    73  69  86 SE12G17   29.83F
PITTSFIELD*    CLOUDY    70  67  89 SE8       29.82F
$$

ILZ028>032-037-038-041>044-048-051>054-059>061-261300-
CENTRAL ILLINOIS

CITY           SKY/WX    TMP DP  RH WIND       PRES   REMARKS
PONTIAC        CLOUDY    71  67  90 S14G21    29.94S
BLOOMINGTON    CLOUDY    69  68  97 SE14      29.92F
DECATUR        CLOUDY    70  67  90 S14G22    29.92S FOG
PEORIA         CLOUDY    72  66  81 SE14      29.86F
6HR MIN TEMP:  70; 6HR MAX TEMP:  73;

LACON*         MOSUNNY   70  65  86 SE10      29.87F
LINCOLN*       CLOUDY    70  67  90 SE12G18   29.87F FOG
SPRINGFIELD    LGT RAIN  72  68  87 SE16G23   29.87S
6HR MIN TEMP:  70; 6HR MAX TEMP:  72; 6HR PCP: TRACE;

TAYLORVILLE    CLOUDY    70  66  88 SE12      29.89S
$$

ILZ033-039-045-046-055>057-062-063-261300-
EAST-CENTRAL ILLINOIS

CITY           SKY/WX    TMP DP  RH WIND       PRES   REMARKS
CHAMPAIGN      CLOUDY    69  67  93 SE13      29.95F FOG
DANVILLE*      DRIZZLE   67  66  97 SE9       29.95F
RANTOUL*       DRIZZLE   69  68  96 SE12      29.96S
MATTOON        CLOUDY    68  66  93 S16G24    29.94S FOG
PARIS*         CLOUDY    69  67  95 SE14G21   29.99S
$$

ILZ079-100>102-261300-
SOUTHWEST ILLINOIS

CITY           SKY/WX    TMP DP  RH WIND       PRES   REMARKS
ALTON          CLOUDY    72  72 100 SE14      29.86R
BELLEVILLE     CLOUDY    71  71  99 SE13G20   29.86R
CAHOKIA*       CLOUDY    73  67  81 S10G21    29.85R
SPARTA*        CLOUDY    71  67  85 S12       29.89R
$$

ILZ064>066-069>071-074>076-080>082-084>086-088>090-092>094-261300-
SOUTH-CENTRAL ILLINOIS

CITY           SKY/WX    TMP DP  RH WIND       PRES   REMARKS
CARBONDALE     CLOUDY    71  66  84 SE14G26   29.88F
6HR MIN TEMP:  70; 6HR MAX TEMP:  72;

CAIRO*         CLOUDY    71  67  87 SE21G26   29.90F
EFFINGHAM*     CLOUDY    70  65  84 SE14G21   29.96S
MARION         CLOUDY    72  68  88 SE15      29.92F
MT. VERNON     PTSUNNY   72  64  78 SE12      29.93F
CENTRALIA*     CLOUDY    72  65  78 SE15      29.89F
SALEM*         CLOUDY    73  67  79 SE12G17   29.92F
METROPOLIS*    CLOUDY    71  69  94 SE8       29.94F
$$

ILZ067-068-072-073-078-083-087-091-261300-
SOUTHEAST ILLINOIS

CITY           SKY/WX    TMP DP  RH WIND       PRES   REMARKS
LAWRENCEVILLE  CLOUDY    70  65  84 S15       30.00S
FLORA*         PTSUNNY   70  66  87 SE15      29.96F
FAIRFIELD*     CLOUDY    70  66  89 SE12      29.95F
HARRISBURG*    CLOUDY    71  67  89 S13       29.97F
ROBINSON*      CLOUDY    69  66  88 S12       30.00F
CARMI*         CLOUDY    70  63  78 SE12      29.98S
$$

ABBREVIATIONS USED IN REMARKS
   TC - TEMPERATURE IN CELSIUS
  WCI - WIND CHILL INDEX
   HX - HEAT INDEX
  VSB - VISIBILITY
$$




USA.gov is the U.S. government's official web portal to all federal, state and local government web resources and services.